Location: Palomar Mountain Lodge
(33.3110°N, 116.8495°W)
Time: 08:37:22
(UTC-07:00)

Helios 1A - Pass Details

Date: 12 July 2018
Orbit: 585 x 604 km, 98.2° (Epoch: 14 September)

Event Time Altitude Azimuth Distance (km) Brightness Sun altitude
Exits shadow 22:29:56 69° 8° (N) 644 3.1 -25.1°
Drops below altitude 10° 22:33:42 10° 350° (N) 1,950 6.4 -25.6°
Sets 22:35:53 0° 349° (N) 2,858 7.5 -25.9°
